Погода в Питляре

Погода в Питляре : погода сейчас, прогноз погоды и архив. Всё, что Вы хотите узнать о погоде в Питляре!

Хотите узнать прогноз погоды в Питляре? Тогда Вам сюда: Погода в Питляре

Поиск расширенной информации на нашем сайте:

Другие новости

Новости СМИ2

Главная страница сайта

Новости сайта

03.07.2017

Напоминаем, что на нашем специализированном сайте Метеоцентр.Азия вы можете получить высокодетализированные автоматические прогнозы погоды по пунктам России, СНГ и мира в авиационном формате (включающие направление и скорость ветра, видимость, явления погоды, количество и форму облачности, нижнюю и верхнюю границу облачности).


Погода в Питляре - сегодня

Время (UTC), дата Ветер
(°,м/с) 
Видим.   Явления Облачность Т
(°С)
Тd
(°С)
f(%) Тe
(°С)
Pmin
(гПа)
dP
(гПа)
Po
(мм)
O2
(г/м3)
Тmin Tmax R s Состояние
почвы
18 19.02.18 060 (СВ) 20000 м    10/0 верхняя 
[Ci fib]
-26.6 -30.2 71 -30  1026.9  1.1  768  345           
21 19.02.18 090 (В) 20000 м    10/0 верхняя 
[Ci fib]
-27.9 -32 68 -31  1027.6  0.7  769  347           
00 20.02.18 070 (В) 20000 м    ясно 
-32.3 -36.9 64 -36  1028.3  0.5  769  354           
03 20.02.18 060 (СВ) 20000 м    10/0 верхняя 
[Ci fib]
-33.9 -38.8 61 -35  1028.9  0.7  770  356  -33.9      61  неравномерный
сухой снег
100% 
06 20.02.18 тихо ()   н/о    н/о 
-31.5 -36.5 61 -32  1029  0.1  770  353    -26       
09 20.02.18 310 (СЗ) 20000 м    ясно 
-25.3 -29.4 69 -26  1029.3  0.4  770  344           
12 20.02.18 040 (СВ) н/о    н/о 
-21.9 -25.8 71 -22  1029.1  -0.2  770  339           
18 20.02.18 070 (В) 20000 м    10/0 верхняя 
[Ci sp]
-27 -31 69 -30  1029.1  770  346           
21 20.02.18 060 (СВ) 20000 м    10/0 верхняя 
[Ci fib]
-29.3 -33.6 66 -35  1028.9  -0.1  770  350           
00 21.02.18 050 (СВ) 20000 м    10/0 верхняя 
[Ci fib]
-30.6 -35.1 65 -31  1029.2  0.3  770  352           
03 21.02.18 040 (СВ) 20000 м    6/0 верхняя 
[Ci fib]
-31.6 -36.2 64 -35  1028.8  -0.5  770  353  -31.6      61  неравномерный
сухой снег
100% 
06 21.02.18 040 (СВ) н/о    н/о 
-29.8 -34.4 64 -35  1028.8  770  350    -27       
09 21.02.18 020 (С) 20000 м    10/0 верхняя 
[Cs]
-27.4 -32.3 63 -33  1028.1  -0.7  769  346           
12 21.02.18 030 (СВ) н/о    н/о 
-28.3 -33.2 63 -34  1027.3  -0.7  769  348           
18 21.02.18 030 (СВ) 20000 м    10/0 средняя, верхняя 
[Ac lent|Ci sp]
-27.4 -32 65 -34  1026.2  -0.6  768  346           
21 21.02.18 040 (СВ) 5{11}  20000 м    3/0 средняя 
[Ac lent]
-27.4 -31.6 67 -35  1025.8  -0.5  768  346           
00 22.02.18 030 (СВ) 5{11}  20000 м    ясно 
-27.1 -31.5 66 -35  1025.1  -0.6  767  345           
03 22.02.18 030 (СВ) 5{11}  20000 м    10/0 верхняя 
[Ci fib]
-27.8 -32.1 67 -36  1024.8  -0.3  767  346  -29      61  неравномерный
сухой снег
100% 
09 22.02.18 030 (СВ) 5{12}  20000 м    10/0 средняя, верхняя 
[Ac lent|Ci sp]
-25.5 -30.2 65 -33  1024.4  -0.2  767  343           
12 22.02.18 030 (СВ) 5{12}  н/о    н/о 
-25 -29.5 66 -32  1024.6  0.2  767  342           
15 22.02.18 040 (СВ) 4{11}  10 км  позёмок  10/0 верхняя 
[Ci sp]
-25.2 -29.3 69 -31  1024.8  0.2  767  342    -24.6       
00 23.02.18 030 (СВ) 2{10}  20000 м    ясно 
-28.5 -32.9 66 -32  1026  0.5  768  347           
03 23.02.18 040 (СВ) 20000 м    10/0 средняя, верхняя 
[Ac lent|Ci ing]
-26.1 -30.3 68 -29  1025.9  768  344  -28.6      61  неравномерный
сухой снег
100% 
06 23.02.18 030 (СВ) н/о    н/о 
-23.3 -27 72 -28  1025.5  -0.4  767  340    -23.3       
09 23.02.18 030 (СВ) 20000 м    8/0 средняя 
[Ac trans]
-20.7 -26.1 62 -24  1024.9  -0.6  767  336           
Время (UTC), дата Ветер
(°,м/с) 
Видим.   Явления Облачность Т
(°С)
Тd
(°С)
f(%) Тe
(°С)
Pmin
(гПа)
dP
(гПа)
Po
(мм)
O2
(г/м3)
Тmin Tmax R s Состояние
почвы

Для получения пояснительной информации подведите курсор к названию столбца.

ПОГОДА в Питляре - архив

Всё, что Вы хотите узнать о погоде в Питляре - удобно и подробно!

Выберите нужную дату (начиная с 1 января 2015* года) и нажмите кнопку "Найти".
Будут отображены архивные сводки погоды по пункту Питляр, начиная с указанной даты.


Отображать данные в формате CSV (для использования в таблицах Excel)


Внимание! Наш архив погоды предназначен исключительно для личного некоммерческого использования в познавательных целях. Если Вам необходимы официальные справки о состоянии погоды (для производственных, юридических, коммерческих и т.п. целей), обращайтесь в органы Росгидромета.

*Примечание: данная дата относится к архиву по метеостанциям СССР (Россия, СНГ, Балтия).
Архив по метеостанциям Зарубежной Европы и Азии (кроме Китая) хранится 10 дней, по другим регионам земного шара (Китай, Африка, Америка, Австралия, Океания) - 1 день.

Питляр - район местоположения метеостанции


Название, широта, долгота, высота метеостанции:
Питляр 65.8°ш. 66°д. 17 м над ур. моря [Российская Федерация]

Дополнительная информация

В oтличие oт бoльшинства пoгoдных сайтoв мы публикуем пoдрoбную метеoинфoрмацию в детальнoм прoфессиoнальнoм фoрмате.

Характеристики температуры и влажнoсти вoздуха измеряются на высoте 2 м в тени вдали oт зданий и деревьев.
Скoрoсть ветра измеряется на высoте 10 м (на урoвне рoста челoвека скoрoсть ветра ниже в 1.5-2 раза). Если метеoстанция нахoдится в гoрoде или в лесу, тo скoрoсть ветра занижена на 2-4 м/с пo сравнению с oткрытым местoм. Скoрoсть ветра над акватoриями крупных рек и oзёр, а также на вершинах хoлмoв на 2-5 м/с выше, чем в oбычных услoвиях.
Атмoсфернoе давление в разных тoчках местнoсти мoжет значительнo oтличаться oт давления на метеoстанции, в зависимoсти oт услoвий рельефа (при пoдъёме на 10 м давление пoнижается примернo на 1 мм рт.ст.).